Погода в Похвистневе

Россия / Самарская область     53°39′11″N   52°07′20″E
темп.,
°C
ветер,
м/с
пор.,
м/с
влажн.,
%
обл.,
%
осадки,
мм/ч
давл.,
гПа
погр.,
м
17 мая, пн
пн1701:00+18юв125918 0.0 101811
04:00+17ююв22616 0.0 101917
07:00+21ю255617 0.0 1019159
10:00+26ю444210 0.0 1019433
13:00+29ююз443147 0.0 10191188
16:00+30юз342613 0.0 10182943
19:00+26ю22415 0.0 101714
22:00+21ююз22392 0.0 101811
18 мая, вт
вт1801:00+19ююз11406 0.0 101811
04:00+18ююз11413 0.0 101811
07:00+22с11445 0.0 101856
10:00+27в10330 0.0 1018433
13:00+30з12210 0.0 10172775
16:00+30с11203 0.0 10173249
19:00+27сз113416 0.0 101613
22:00+21св5106885 0.2 1018295
19 мая, ср
ср1901:00+18всв5136997 0.0 1018321
04:00+16всв512675 0.0 1018299
07:00+18всв612695 0.0 1018401
10:00+22в78520 0.0 1018897
13:00+25в78420 0.0 10181522
16:00+25вюв78400 0.0 10181744
19:00+22в59540 0.0 1018289
22:00+18в412560 0.0 1019224
20 мая, чт
чт2001:00+16юв514615 0.0 1020400
04:00+13вюв3116913 0.0 1021253
07:00+16вюв512635 0.0 1020443
10:00+20юв710445 0.0 10201159
13:00+23юв793630 0.0 10201806
16:00+23юв67340 0.0 10191955
19:00+20юв375461 0.0 1018173
22:00+16вюв225867 0.0 101923
21 мая, пт
пт2101:00+15в2257100 0.0 101819
04:00+15в2454100 0.0 101971
07:00+17вюв375889 0.0 1019275
10:00+21юв464278 0.0 1018888
13:00+23юв583835 0.0 10182388
16:00+24ю573828 0.0 10172422
19:00+21юз25531 0.0 1017109
22:00+17в11575 0.0 101811